Skip Page Navigation
NASA JPL Caltech
NASA Logo - Jet Propulsion Laboratory + View the NASA Portal
+ Near-Earth Object (NEO) Program
Search JPL
JPL Home Earth Solar System Stars & Galaxies Technology
JPL Solar System Dynamics
BODIES ORBITS EPHEMERIDES TOOLS PHYSICAL DATA DISCOVERY FAQ SITE MAP
JPL Small-Body Database Browser
Search: [ help ]  
65714 (1992 VR)
Classification: Main-belt Asteroid          SPK-ID: 2065714
Ephemeris | Orbit Diagram | Orbital Elements | Physical Parameters | Discovery Circumstances | Close-Approach Data ]

[ show orbit diagram ]
Orbital Elements at Epoch 2456400.5 (2013-Apr-18.0) TDB
Reference: JPL 1 (heliocentric ecliptic J2000)
 Element Value Uncertainty (1-sigma)   Units 
e .1612320187630663 5.3516e-08  
a 2.465172485008785 1.8222e-08 AU
q 2.067707748651654 1.3407e-07 AU
i 1.748117481174957 7.591e-06 deg
node 179.5350693371706 0.00021467 deg
peri 218.7824330192282 0.0002168 deg
M 106.4151222375371 3.0168e-05 deg
tp 2455982.602048850309
(2012-Feb-25.10204885)
0.00011664 JED
period 1413.739506665913
3.87
1.5675e-05
4.292e-08
d
yr
n .2546437998673494 2.8234e-09 deg/d
Q 2.862637221365917 2.116e-08 AU
  Orbit Determination Parameters
   # obs. used (total)      649  
   data-arc span      8981 days (24.59 yr)  
   first obs. used      1988-09-08  
   last obs. used      2013-04-11  
   planetary ephem.      DE405  
   SB-pert. ephem.      SB405-CPV-2  
   condition code      0  
   fit RMS      .57688  
   data source      ORB  
   producer      Otto Matic  
   solution date      2013-Apr-29 16:53:40  

Additional Information
 Earth MOID = 1.0748 AU 
 T_jup = 3.469 
[ show covariance matrix ]

Ephemeris | Orbit Diagram | Orbital Elements | Physical Parameters | Discovery Circumstances | Close-Approach Data ]

Physical Parameter Table
Parameter Symbol Value Units Sigma Reference Notes
absolute magnitude H 14.929 mag .53302 1 autocmod 2.5c

65714 (1992 VR)          Discovered 1992-Nov-02 by Ueda, S., Kaneda, H. at Kushiro (399)
Reference: 20030910/Numbers.arcLast Updated: 2004-04-19

[ show close-approach data ]
Alternate Designations
 1992 VR = 1988 RC3 = 1988 VY6 
Ephemeris | Orbit Diagram | Orbital Elements | Physical Parameters | Discovery Circumstances | Close-Approach Data ]
ABOUT SSD CREDITS/AWARDS PRIVACY/COPYRIGHT GLOSSARY LINKS
FirstGov 2013-Jun-20 03:00 UT
(server date/time)  
NASA Home Page
Site Manager:   Donald K. Yeomans
Webmaster  Alan B. Chamberlin